Location: DARK SKY Beskydy - Park tmavé oblohy, www.darkskybeskydy.cz
(49.4926°N, 18.5016°E)
Time: 12:16:43
(UTC+02:00)

BlueWalker 3 - Pass Details

Date: 23 June 2024
Orbit: 480 x 491 km, 53.2° (Epoch: 23 July)

Event Time Altitude Azimuth Distance (km) Brightness Sun altitude
Rises 23:17:55 0° 278° (W) 2,539 5.9 -14.4°
Reaches altitude 10° 23:20:09 10° 285° (WNW) 1,658 5.1 -14.5°
Maximum altitude 23:23:46 45° 359° (N) 662 3.0 -14.7°
Drops below altitude 10° 23:27:22 10° 74° (ENE) 1,656 4.5 -14.9°
Sets 23:29:36 0° 81° (E) 2,536 5.4 -15.0°
